This is the latest recevied weather packets stored in our database for station/object 9W2TBJ-4. If no packets are shown the sender has not sent any weather packets the latest 10 day(s).
| Time | Temp. | Humidity | Pressure | Rain* | Wind** | Luminosity | Snow |
|---|---|---|---|---|---|---|---|
| 1777392904 | 32.22° C | 61% | 1011.3 hPa | - | - | - | - |
| 1777391704 | 31.67° C | 62% | 1011.2 hPa | - | - | - | - |
| 1777390504 | 31.67° C | 64% | 1011.3 hPa | - | - | - | - |
| 1777389304 | 32.22° C | 61% | 1011.2 hPa | - | - | - | - |
| 1777388104 | 32.22° C | 62% | 1010.9 hPa | - | - | - | - |
| 1777386905 | 31.67° C | 63% | 1010.9 hPa | - | - | - | - |
| 1777385745 | 32.22° C | 62% | 1010.7 hPa | - | - | - | - |
| 1777385705 | 32.22° C | 62% | 1010.7 hPa | - | - | - | - |
| 1777384505 | 32.22° C | 61% | 1010.5 hPa | - | - | - | - |
| 1777383305 | 32.22° C | 61% | 1010.3 hPa | - | - | - | - |
| 1777382104 | 32.22° C | 62% | 1010.2 hPa | - | - | - | - |
| 1777380904 | 32.22° C | 61% | 1009.9 hPa | - | - | - | - |
| 1777379704 | 32.22° C | 61% | 1009.7 hPa | - | - | - | - |
| 1777378504 | 32.78° C | 59% | 1009.3 hPa | - | - | - | - |
| 1777377304 | 32.78° C | 59% | 1008.9 hPa | - | - | - | - |
| 1777376104 | 32.22° C | 61% | 1008.8 hPa | - | - | - | - |
| 1777374904 | 32.22° C | 61% | 1008.6 hPa | - | - | - | - |
| 1777373704 | 32.78° C | 59% | 1008.4 hPa | - | - | - | - |
| 1777372504 | 33.33° C | 58% | 1008.1 hPa | - | - | - | - |
| 1777371304 | 32.78° C | 59% | 1008.2 hPa | - | - | - | - |
| 1777370104 | 32.78° C | 60% | 1007.9 hPa | - | - | - | - |
| 1777368906 | 32.78° C | 59% | 1007.7 hPa | - | - | - | - |
| 1777367704 | 33.33° C | 58% | 1007.3 hPa | - | - | - | - |
| 1777366504 | 33.33° C | 58% | 1007.2 hPa | - | - | - | - |
| 1777365304 | 33.33° C | 59% | 1007.4 hPa | - | - | - | - |
* Rain since midnight (hover to see other rain measurements)
** Current wind speed in m/s (hover to see current wind gust speed)